Home > Weather > Sioux Falls > Past weeks

Flag for USA Past Weather in Sioux Falls, South Dakota, USA — Yesterday and Last 2 Weeks

Now
83 °F

Passing clouds.


Feels Like: 85 °F
Forecast: 62 / 88 °F
Wind: 23 mph from South

Location: Foss Field

Current Time: Jun 24, 2016 at 3:28:59 PM

Latest Report: Jun 24, 2016 at 2:56 PM


Visibility: 10 mi

Pressure: 29.88 "Hg

Humidity: 57%

Dew Point: 66 °F

Location of Sioux FallsLocation

Past Weather in Sioux Falls — Graph

°F

Sioux Falls Temperature Yesterday

Maximum temperature yesterday: 78 °F (at 6:56 PM)
Minimum temperature yesterday: 58 °F (at 4:56 AM)
Average temperature yesterday: 68 °F

High & Low Weather Summary for the Past Weeks

 TemperatureHumidityPressure
High97 °F (Jun 11, 4:56 PM)90% (Jun 13, 6:56 AM)30.23 "Hg (Jun 13, 6:56 AM)
Low54 °F (Jun 21, 5:56 AM)30% (Jun 9, 3:56 PM)29.62 "Hg (Jun 14, 3:56 PM)
Average77 °F63%29.90 "Hg
* Reported Jun 9 1:56 PM — Jun 24 1:56 PM, Sioux Falls, Weather by CustomWeather, © 2016

Note: Actual official high and low records may vary slightly from our data, if they occured in-between our weather recording intervals... More about our weather records

Advertising

Sioux Falls Weather History for the Previous 24 Hours

Scroll right to see more
 ConditionsComfort  
Time TempWeatherWind HumidityBarometerVisibility
1:56 PM
Fri, Jun 24
83 °FPassing clouds.15 mph57%29.88 "Hg10 mi
12:56 PM82 °FPassing clouds.16 mph56%29.89 "Hg10 mi
11:56 AM78 °FScattered clouds.20 mph58%29.93 "Hg10 mi
10:56 AM75 °FScattered clouds.14 mph66%29.95 "Hg10 mi
9:56 AM73 °FPassing clouds.18 mph66%29.97 "Hg10 mi
8:56 AM70 °FPassing clouds.13 mph68%29.99 "Hg10 mi
7:56 AM66 °FPassing clouds.12 mph75%29.99 "Hg10 mi
6:56 AM64 °FPassing clouds.10 mph78%29.99 "Hg10 mi
5:56 AM63 °FPassing clouds.8 mph78%29.98 "Hg10 mi
4:56 AM64 °FPassing clouds.16 mph78%29.98 "Hg10 mi
3:56 AM64 °FClear.10 mph78%29.97 "Hg10 mi
2:56 AM65 °FClear.13 mph78%29.99 "Hg10 mi
1:56 AM66 °FClear.14 mph73%30.02 "Hg10 mi
12:56 AM68 °FClear.10 mph65%30.03 "Hg10 mi
11:56 PM
Thu, Jun 23
67 °FClear.6 mph71%30.03 "Hg10 mi
10:56 PM67 °FClear.9 mph71%30.02 "Hg10 mi
9:56 PM71 °FPassing clouds.6 mph59%30.01 "Hg10 mi
8:56 PM71 °FPassing clouds.8 mph61%30.01 "Hg10 mi
7:56 PM74 °FPassing clouds.7 mph53%30.00 "Hg10 mi
6:56 PM78 °FPassing clouds.3 mph48%30.02 "Hg10 mi
5:56 PM77 °FPassing clouds.3 mph50%30.03 "Hg10 mi
4:56 PM77 °FPassing clouds.5 mph52%30.03 "Hg10 mi
3:56 PM77 °FPassing clouds.5 mph50%30.05 "Hg10 mi
Weather by CustomWeather, © 2016

See weather overviewHow to use our weather pages